TURKSAT 3A

Last updated on Mon Sep 15 2025 00:02:46 GMT+0000 (Coordinated Universal Time)

1 33056U 08030B 25257.22058602 .00000134 00000+0 00000+0 0 9990 2 33056 0.0471 83.0478 0004372 86.7952 304.9976 1.00272503 49599
UTC large
Height (km)
Speed (km/s)
/
Latitude / Longitude
Inclination (degrees)
Orbital Period (minutes)
Azimuth
Elevation
Range (km)
Doppler Factor

Next 0 passes for location: London (51.5072 / 0.1276)

Sorry there are no passes over London.